Terug naar catalogus

DELTA 1 DEB

ActiefPO
NORAD 21985·DEBRIS·🇺🇸 United States

Gelanceerd Jun 12, 1975 vanaf Vandenberg Space Force Base

Loading…

Volgende Passages (komende 24 uur)

TLE

VersSource: Space-Track

Epoch: Sep 13, 2026, 15:26 UTC

1 21985U 75052JX  26256.64336624  .00003759  00000-0  22940-2 0  9992
2 21985  99.5583 137.5322 0028425 289.8617  99.5356 14.06470970717900

Volg DELTA 1 DEB in realtime met AllMySat

Download on the App Store